THOR ABLESTAR DEB, 337

Orbit data source: Space-Track

THOR ABLESTAR DEB, 337 is space debris in LEO originally from a launch on Thu, 29 Jun 1961 UTC launched from the Air Force Eastern Test Range (AFETR). Debris objects in space refer to the collection of defunct objects orbiting the Earth. Examples of debris include non-operational satellites, rocket bodies, and fragments generated from explosions, collisions, or faulty payload assembly.

Loading next visibility...
Identifier
337, 1961-015DP
Orbit
LEO
Country
Flag of USUS
Related business
Manufacturer
Unknown
Mission
Spacecraft
Bus & Motor
Unknown
Mass
Unknown
Launch date (UTC)
1961-06-29 (65 years ago)
Launch vehicle
Unknown
Launch site
Air Force Eastern Test Range (AFETR)
Object type
Payload
Rocket body
Debris
Shape & HBR
Unknown shape, 0.1 m
Radar Cross Section
Small (<0.1 m²)

Expand to show TLE details & history
Last TLE update: 7 hours ago

TLE from 7 hours ago
0 THOR ABLESTAR DEB
1 00337U 61015DP  26126.92488914  .00000278  00000-0  34298-3 0  9994
2 00337  67.0106  19.6942 0108717 288.6192  70.3100 13.76393331239101
Epoch: 2026-05-06T22:11Z
TLE epoch observation values (Epoch: 2026-05-06T22:11:50.421Z)
Latitude
-0.00001°
Longitude
-178.04429°
Altitude
952.616 km
Speed
7.389 km/s
True Right ascension
01h 18m 46s
True Declination
0° 00' 00"
Sunlit
Object was in daylight at epoch
Visualization orbit readout
Latitude
Unknown
Longitude
Unknown
Altitude
Unknown
Speed
Unknown
Apparent Right ascension
Unknown
Apparent Declination
Unknown
Sunlit
N/A
Visualization observer readout
Local Sidereal Time
13:30:41
Azimuth
Unknown
Elevation
Unknown
Doppler factor
Unknown
Orbital elements
Apogee altitude
1,055.03 km
Perigee altitude
895.146 km
Semi-major axis
7,353.225 km
Eccentricity
0.01087
Inclination
67.0106°
RAAN
19.6942°
Arg. of periapsis
288.6192°
True anomaly
71.48827°
Mean anomaly
70.31°
Eccentric anomaly
70.89861°
Mean motion
3.44212 °/min
Orbital period
104.59 mins
BSTAR
0.00034298
Loading maneuver chart data...
Computing Atmospheric mass density...

Documentation

Showing up to 5 results
|